Precipitable_Water
0.98 0.97 0.97 0.94 0.91 0.91 0.92 0.90 0.90 0.93 0.92 0.93 0.91 0.91 0.93 0.92 0.91 0.89 0.88 0.83 0.81 0.70 0.64 0.63 0.61 0.60 0.63 0.68 0.69 0.68 0.70 0.72 0.75 0.74 0.76 0.74 0.72 0.71 0.68 0.66 0.64 0.64 0.64 0.65 0.69 0.69 0.67 0.65 0.64 0.65 0.69 0.68 0.68 0.70 0.70 0.67 0.59 0.56 0.54 0.52 0.51 0.50 0.47 0.43 0.40 0.43 0.52 0.59 0.57 0.55 0.55 0.55 0.54 0.57 0.53 0.53 0.53 0.55 0.57 0.57 0.58 0.54 0.52 0.52 0.52
1.04 1.02 1.01 1.00 0.96 0.96 0.95 0.94 0.93 0.93 0.92 0.92 0.89 0.90 0.89 0.89 0.90 0.87 0.81 0.77 0.74 0.69 0.61 0.63 0.61 0.60 0.59 0.61 0.63 0.64 0.66 0.69 0.71 0.72 0.70 0.71 0.70 0.70 0.67 0.65 0.63 0.62 0.61 0.60 0.63 0.65 0.64 0.62 0.62 0.62 0.63 0.62 0.63 0.65 0.68 0.67 0.62 0.59 0.57 0.54 0.53 0.51 0.51 0.46 0.44 0.44 0.46 0.55 0.55 0.58 0.54 0.57 0.51 0.56 0.53 0.52 0.53 0.55 0.56 0.59 0.60 0.60 0.59 0.60 0.59
1.13 1.07 1.05 1.01 0.97 0.96 0.96 0.95 0.96 0.95 0.92 0.90 0.89 0.85 0.84 0.86 0.88 0.82 0.74 0.70 0.73 0.69 0.62 0.60 0.58 0.57 0.58 0.58 0.60 0.61 0.63 0.65 0.68 0.67 0.64 0.62 0.63 0.65 0.67 0.65 0.62 0.59 0.57 0.57 0.57 0.58 0.57 0.56 0.58 0.59 0.59 0.57 0.58 0.60 0.63 0.63 0.63 0.61 0.60 0.58 0.55 0.53 0.54 0.52 0.47 0.46 0.49 0.51 0.55 0.54 0.53 0.56 0.54 0.54 0.56 0.57 0.58 0.58 0.58 0.60 0.61 0.62 0.63 0.65 0.64
1.17 1.12 1.09 1.05 1.02 1.00 0.98 0.98 0.98 0.96 0.92 0.91 0.86 0.81 0.82 0.84 0.83 0.77 0.70 0.68 0.67 0.65 0.58 0.53 0.51 0.51 0.52 0.55 0.57 0.59 0.60 0.62 0.63 0.62 0.59 0.54 0.50 0.53 0.59 0.60 0.58 0.55 0.51 0.48 0.46 0.47 0.49 0.50 0.52 0.55 0.56 0.56 0.57 0.59 0.61 0.61 0.61 0.60 0.59 0.59 0.58 0.55 0.56 0.54 0.52 0.55 0.57 0.54 0.57 0.57 0.57 0.57 0.58 0.58 0.58 0.60 0.59 0.59 0.60 0.62 0.65 0.63 0.62 0.64 0.64
1.23 1.20 1.15 1.12 1.09 1.06 1.02 1.01 0.99 0.97 0.96 0.92 0.85 0.79 0.82 0.83 0.81 0.75 0.68 0.65 0.66 0.61 0.58 0.53 0.46 0.48 0.49 0.51 0.53 0.55 0.57 0.57 0.55 0.54 0.54 0.51 0.48 0.49 0.52 0.52 0.51 0.49 0.49 0.49 0.49 0.46 0.46 0.49 0.52 0.55 0.56 0.56 0.57 0.58 0.59 0.58 0.59 0.59 0.58 0.60 0.59 0.59 0.59 0.57 0.58 0.62 0.60 0.58 0.58 0.60 0.59 0.59 0.60 0.60 0.60 0.58 0.59 0.61 0.64 0.64 0.63 0.61 0.61 0.63 0.61
1.18 1.18 1.18 1.12 1.12 1.12 1.09 1.05 1.00 0.98 0.96 0.93 0.83 0.79 0.81 0.81 0.79 0.72 0.67 0.66 0.68 0.66 0.61 0.54 0.50 0.48 0.49 0.51 0.51 0.51 0.50 0.50 0.49 0.50 0.49 0.49 0.48 0.48 0.51 0.52 0.54 0.55 0.56 0.57 0.57 0.56 0.53 0.52 0.53 0.55 0.56 0.56 0.56 0.57 0.59 0.59 0.61 0.61 0.61 0.61 0.61 0.60 0.59 0.63 0.65 0.65 0.63 0.62 0.61 0.59 0.61 0.59 0.61 0.63 0.64 0.63 0.61 0.61 0.63 0.65 0.65 0.63 0.60 0.59 0.60
1.12 1.10 1.12 1.10 1.06 1.05 1.07 1.08 1.06 1.02 0.98 0.93 0.81 0.80 0.79 0.81 0.76 0.68 0.68 0.69 0.71 0.68 0.64 0.56 0.52 0.53 0.54 0.52 0.50 0.50 0.50 0.51 0.51 0.51 0.52 0.52 0.51 0.52 0.55 0.58 0.59 0.59 0.60 0.60 0.61 0.61 0.60 0.59 0.58 0.58 0.58 0.59 0.59 0.59 0.60 0.62 0.63 0.64 0.66 0.67 0.68 0.68 0.68 0.69 0.69 0.67 0.66 0.65 0.64 0.64 0.62 0.64 0.65 0.63 0.70 0.69 0.67 0.64 0.60 0.59 0.59 0.62 0.62 0.59 0.57
1.14 1.14 1.13 1.10 1.04 1.02 1.06 1.09 1.08 1.05 1.02 0.90 0.77 0.78 0.81 0.80 0.73 0.70 0.70 0.71 0.73 0.72 0.68 0.61 0.55 0.55 0.57 0.58 0.58 0.57 0.56 0.54 0.55 0.55 0.57 0.58 0.58 0.58 0.59 0.59 0.60 0.60 0.61 0.61 0.63 0.62 0.62 0.63 0.63 0.63 0.63 0.63 0.63 0.64 0.65 0.65 0.67 0.67 0.71 0.71 0.71 0.70 0.69 0.70 0.70 0.70 0.68 0.67 0.66 0.65 0.66 0.64 0.67 0.71 0.74 0.73 0.68 0.67 0.67 0.64 0.59 0.58 0.59 0.60 0.60
1.15 1.12 1.10 1.07 1.07 1.09 1.12 1.12 1.11 1.04 0.93 0.87 0.85 0.85 0.84 0.80 0.74 0.71 0.72 0.76 0.77 0.79 0.79 0.74 0.62 0.56 0.57 0.59 0.60 0.64 0.63 0.59 0.57 0.57 0.58 0.60 0.62 0.61 0.61 0.61 0.61 0.60 0.60 0.61 0.62 0.63 0.64 0.63 0.63 0.63 0.65 0.66 0.68 0.68 0.70 0.71 0.70 0.69 0.71 0.73 0.72 0.71 0.71 0.71 0.71 0.71 0.70 0.69 0.68 0.70 0.69 0.68 0.69 0.70 0.72 0.73 0.72 0.70 0.74 0.71 0.66 0.65 0.63 0.60 0.61
1.10 1.08 1.07 1.06 1.05 1.08 1.11 1.12 1.05 0.98 0.95 0.94 0.89 0.89 0.87 0.78 0.73 0.74 0.75 0.79 0.82 0.87 0.84 0.78 0.73 0.66 0.58 0.57 0.60 0.63 0.64 0.65 0.63 0.60 0.59 0.60 0.61 0.62 0.63 0.63 0.63 0.62 0.61 0.60 0.61 0.62 0.62 0.63 0.62 0.62 0.62 0.62 0.65 0.68 0.72 0.74 0.75 0.74 0.74 0.74 0.73 0.72 0.72 0.71 0.71 0.72 0.70 0.68 0.67 0.68 0.67 0.66 0.69 0.72 0.73 0.77 0.81 0.81 0.76 0.72 0.67 0.67 0.67 0.63 0.63
1.08 1.10 1.08 1.11 1.12 1.12 1.13 1.08 1.06 1.04 1.03 1.00 1.00 1.00 0.93 0.86 0.81 0.81 0.82 0.84 0.86 0.87 0.85 0.77 0.72 0.72 0.66 0.58 0.56 0.58 0.61 0.64 0.65 0.64 0.62 0.61 0.62 0.62 0.61 0.62 0.64 0.65 0.64 0.62 0.60 0.60 0.61 0.62 0.63 0.64 0.65 0.66 0.67 0.69 0.72 0.74 0.74 0.75 0.75 0.76 0.77 0.76 0.74 0.73 0.72 0.73 0.71 0.69 0.69 0.68 0.66 0.66 0.69 0.73 0.75 0.78 0.81 0.80 0.78 0.74 0.70 0.68 0.64 0.60 0.56
1.00 1.01 1.03 1.07 1.09 1.10 1.10 1.07 1.06 1.06 1.06 1.03 1.02 1.03 1.02 1.00 0.97 0.96 0.94 0.92 0.91 0.90 0.86 0.83 0.77 0.72 0.69 0.65 0.60 0.59 0.60 0.62 0.63 0.65 0.65 0.65 0.65 0.64 0.63 0.61 0.62 0.63 0.64 0.64 0.63 0.62 0.61 0.61 0.63 0.66 0.66 0.67 0.70 0.74 0.78 0.80 0.80 0.80 0.80 0.81 0.81 0.82 0.81 0.78 0.75 0.74 0.73 0.71 0.69 0.69 0.69 0.68 0.70 0.74 0.75 0.76 0.76 0.78 0.78 0.75 0.72 0.67 0.64 0.61 0.60
0.93 0.92 0.96 0.99 0.99 0.99 1.00 1.01 1.00 1.01 1.03 1.02 1.00 1.00 0.98 0.98 0.97 0.98 0.97 0.98 0.97 0.94 0.92 0.89 0.86 0.84 0.80 0.74 0.70 0.70 0.69 0.70 0.68 0.66 0.65 0.65 0.65 0.65 0.65 0.66 0.64 0.64 0.64 0.65 0.65 0.64 0.63 0.62 0.62 0.65 0.67 0.70 0.72 0.74 0.77 0.79 0.82 0.83 0.84 0.85 0.85 0.85 0.86 0.86 0.86 0.81 0.79 0.75 0.72 0.72 0.72 0.74 0.73 0.76 0.80 0.80 0.81 0.76 0.75 0.72 0.70 0.67 0.65 0.63 0.61
0.85 0.86 0.89 0.90 0.88 0.88 0.90 0.93 0.94 0.96 0.98 0.97 0.97 0.94 0.93 0.91 0.92 0.96 1.00 0.98 0.94 0.93 0.93 0.91 0.90 0.89 0.88 0.87 0.86 0.85 0.83 0.82 0.80 0.78 0.76 0.74 0.73 0.72 0.70 0.69 0.69 0.70 0.70 0.70 0.70 0.70 0.70 0.68 0.66 0.66 0.69 0.73 0.75 0.77 0.79 0.80 0.81 0.83 0.84 0.84 0.85 0.87 0.89 0.90 0.88 0.88 0.87 0.83 0.80 0.76 0.80 0.82 0.78 0.81 0.84 0.84 0.79 0.76 0.74 0.71 0.68 0.64 0.62 0.61 0.61
0.80 0.82 0.83 0.83 0.81 0.79 0.81 0.83 0.85 0.87 0.90 0.90 0.90 0.89 0.88 0.89 0.91 0.93 0.93 0.93 0.89 0.87 0.85 0.84 0.83 0.84 0.87 0.90 0.89 0.90 0.92 0.94 0.94 0.93 0.90 0.87 0.84 0.81 0.79 0.78 0.77 0.77 0.78 0.78 0.78 0.77 0.76 0.75 0.75 0.74 0.75 0.77 0.79 0.80 0.80 0.80 0.80 0.81 0.82 0.84 0.86 0.90 0.90 0.89 0.88 0.88 0.89 0.90 0.89 0.87 0.88 0.89 0.87 0.87 0.87 0.86 0.83 0.82 0.78 0.71 0.67 0.64 0.64 0.65 0.61
0.78 0.79 0.79 0.79 0.79 0.79 0.79 0.81 0.83 0.84 0.84 0.85 0.86 0.86 0.86 0.87 0.87 0.88 0.87 0.86 0.85 0.85 0.85 0.85 0.84 0.83 0.84 0.85 0.86 0.87 0.92 0.96 0.97 0.97 0.97 0.97 0.96 0.93 0.89 0.84 0.80 0.79 0.78 0.79 0.79 0.80 0.80 0.79 0.76 0.75 0.76 0.78 0.79 0.80 0.80 0.79 0.79 0.79 0.79 0.83 0.87 0.89 0.90 0.90 0.92 0.92 0.94 0.96 0.96 0.94 0.93 0.91 0.89 0.89 0.88 0.86 0.83 0.80 0.75 0.69 0.65 0.63 0.62 0.58 0.52
0.78 0.78 0.79 0.79 0.80 0.80 0.80 0.80 0.82 0.84 0.83 0.83 0.82 0.87 0.84 0.83 0.83 0.84 0.82 0.82 0.81 0.81 0.81 0.81 0.80 0.79 0.79 0.80 0.80 0.82 0.85 0.89 0.92 0.95 0.97 0.98 0.96 0.94 0.93 0.90 0.87 0.82 0.79 0.79 0.80 0.80 0.81 0.82 0.83 0.83 0.83 0.83 0.84 0.84 0.84 0.84 0.84 0.88 0.89 0.87 0.86 0.82 0.82 0.87 0.89 0.99 0.95 0.96 0.94 0.92 0.90 0.89 0.88 0.87 0.84 0.81 0.78 0.74 0.69 0.65 0.65 0.65 0.60 0.52 0.49
0.77 0.75 0.76 0.80 0.81 0.81 0.82 0.82 0.79 0.76 0.79 0.80 0.80 0.82 0.82 0.81 0.80 0.79 0.77 0.76 0.75 0.76 0.76 0.74 0.74 0.75 0.74 0.74 0.75 0.76 0.78 0.81 0.83 0.85 0.88 0.90 0.91 0.91 0.92 0.91 0.89 0.88 0.87 0.88 0.87 0.86 0.87 0.88 0.89 0.88 0.88 0.88 0.91 0.93 0.94 0.92 0.85 0.82 0.80 0.83 0.82 0.82 0.81 0.84 0.87 0.87 0.85 0.86 0.88 0.88 0.84 0.83 0.82 0.80 0.78 0.75 0.73 0.70 0.65 0.61 0.61 0.57 0.49 0.45 0.40
0.78 0.77 0.76 0.76 0.76 0.75 0.73 0.75 0.80 0.82 0.80 0.79 0.79 0.78 0.79 0.78 0.78 0.77 0.73 0.71 0.69 0.69 0.69 0.67 0.67 0.68 0.69 0.69 0.69 0.69 0.70 0.72 0.74 0.74 0.76 0.79 0.83 0.86 0.87 0.87 0.85 0.85 0.84 0.84 0.89 0.91 0.90 0.90 0.90 0.89 0.89 0.91 0.91 0.95 0.92 0.89 0.85 0.81 0.79 0.79 0.78 0.80 0.83 0.85 0.85 0.85 0.85 0.81 0.76 0.76 0.73 0.73 0.75 0.76 0.74 0.72 0.70 0.66 0.64 0.60 0.56 0.50 0.43 0.41 0.40
0.78 0.80 0.81 0.79 0.79 0.75 0.71 0.70 0.69 0.67 0.67 0.69 0.71 0.74 0.76 0.75 0.74 0.72 0.70 0.69 0.67 0.67 0.65 0.64 0.63 0.64 0.65 0.65 0.64 0.65 0.65 0.66 0.67 0.68 0.70 0.72 0.75 0.78 0.81 0.80 0.78 0.79 0.81 0.79 0.77 0.80 0.83 0.85 0.87 0.88 0.88 0.88 0.87 0.89 0.88 0.86 0.80 0.78 0.81 0.80 0.80 0.79 0.84 0.85 0.83 0.84 0.80 0.77 0.74 0.76 0.78 0.79 0.77 0.76 0.71 0.68 0.65 0.64 0.62 0.58 0.54 0.48 0.44 0.42 0.41
0.73 0.72 0.73 0.74 0.74 0.75 0.75 0.74 0.70 0.67 0.67 0.65 0.66 0.66 0.65 0.64 0.64 0.64 0.62 0.62 0.61 0.60 0.60 0.60 0.59 0.60 0.61 0.62 0.63 0.63 0.65 0.65 0.66 0.67 0.67 0.68 0.70 0.71 0.74 0.76 0.79 0.79 0.78 0.77 0.77 0.75 0.76 0.78 0.81 0.83 0.85 0.85 0.85 0.84 0.84 0.85 0.84 0.80 0.80 0.80 0.81 0.84 0.81 0.80 0.80 0.82 0.79 0.78 0.79 0.78 0.77 0.76 0.73 0.70 0.65 0.62 0.61 0.60 0.58 0.56 0.55 0.51 0.47 0.44 0.41
0.72 0.70 0.69 0.68 0.68 0.68 0.69 0.71 0.71 0.70 0.70 0.69 0.66 0.65 0.65 0.66 0.65 0.63 0.63 0.62 0.60 0.59 0.59 0.58 0.56 0.56 0.56 0.57 0.57 0.57 0.58 0.59 0.59 0.60 0.61 0.63 0.64 0.65 0.65 0.67 0.71 0.73 0.73 0.74 0.74 0.73 0.74 0.75 0.75 0.77 0.79 0.79 0.80 0.80 0.81 0.81 0.81 0.81 0.81 0.85 0.89 0.89 0.85 0.83 0.80 0.80 0.80 0.80 0.80 0.75 0.72 0.69 0.66 0.62 0.59 0.57 0.57 0.57 0.57 0.56 0.54 0.51 0.50 0.48 0.44
0.67 0.66 0.65 0.64 0.65 0.66 0.67 0.68 0.68 0.68 0.67 0.67 0.67 0.66 0.67 0.67 0.65 0.64 0.63 0.61 0.60 0.59 0.58 0.59 0.58 0.57 0.57 0.57 0.57 0.56 0.55 0.55 0.55 0.54 0.55 0.55 0.55 0.57 0.59 0.61 0.64 0.66 0.64 0.64 0.67 0.72 0.75 0.76 0.76 0.76 0.74 0.74 0.75 0.77 0.79 0.80 0.81 0.80 0.82 0.84 0.85 0.86 0.85 0.83 0.82 0.80 0.77 0.74 0.73 0.69 0.66 0.61 0.57 0.53 0.52 0.52 0.53 0.54 0.54 0.56 0.53 0.51 0.49 0.48 0.47
0.63 0.62 0.62 0.62 0.62 0.63 0.63 0.63 0.64 0.64 0.64 0.64 0.64 0.63 0.63 0.64 0.64 0.64 0.63 0.62 0.60 0.59 0.58 0.58 0.56 0.55 0.54 0.53 0.54 0.54 0.53 0.53 0.51 0.50 0.49 0.49 0.49 0.50 0.51 0.52 0.55 0.58 0.60 0.60 0.62 0.64 0.66 0.68 0.71 0.73 0.74 0.74 0.75 0.77 0.80 0.81 0.81 0.82 0.83 0.84 0.85 0.83 0.82 0.81 0.79 0.78 0.74 0.71 0.67 0.62 0.58 0.56 0.53 0.51 0.51 0.52 0.51 0.51 0.51 0.52 0.53 0.50 0.47 0.46 0.46
0.59 0.58 0.58 0.58 0.59 0.60 0.61 0.61 0.61 0.61 0.61 0.60 0.59 0.58 0.58 0.58 0.56 0.56 0.56 0.55 0.53 0.52 0.51 0.51 0.49 0.48 0.47 0.46 0.46 0.47 0.48 0.48 0.48 0.47 0.46 0.45 0.45 0.45 0.45 0.46 0.48 0.51 0.52 0.55 0.59 0.62 0.64 0.66 0.68 0.70 0.71 0.73 0.75 0.78 0.80 0.82 0.83 0.83 0.83 0.83 0.84 0.81 0.78 0.76 0.73 0.69 0.64 0.63 0.62 0.59 0.55 0.53 0.52 0.53 0.54 0.52 0.51 0.51 0.49 0.50 0.49 0.47 0.47 0.47 0.47
0.53 0.52 0.52 0.52 0.52 0.52 0.51 0.52 0.53 0.53 0.53 0.53 0.52 0.52 0.51 0.51 0.49 0.49 0.49 0.48 0.47 0.45 0.44 0.44 0.43 0.42 0.41 0.41 0.40 0.41 0.41 0.41 0.40 0.41 0.41 0.41 0.40 0.41 0.41 0.42 0.43 0.45 0.47 0.49 0.52 0.56 0.59 0.63 0.66 0.68 0.70 0.72 0.73 0.74 0.75 0.78 0.81 0.80 0.81 0.80 0.78 0.76 0.74 0.72 0.68 0.65 0.63 0.61 0.60 0.58 0.55 0.56 0.55 0.52 0.51 0.49 0.47 0.46 0.47 0.46 0.46 0.47 0.48 0.48 0.46
0.46 0.46 0.46 0.47 0.47 0.47 0.45 0.45 0.45 0.46 0.46 0.46 0.46 0.46 0.46 0.45 0.44 0.43 0.43 0.41 0.41 0.40 0.39 0.38 0.37 0.37 0.36 0.35 0.36 0.36 0.36 0.36 0.36 0.36 0.37 0.37 0.36 0.37 0.37 0.37 0.39 0.40 0.41 0.43 0.44 0.47 0.51 0.58 0.62 0.66 0.68 0.70 0.72 0.74 0.76 0.78 0.78 0.78 0.76 0.74 0.73 0.72 0.73 0.72 0.67 0.65 0.64 0.64 0.62 0.59 0.57 0.55 0.51 0.48 0.46 0.45 0.46 0.49 0.51 0.51 0.50 0.50 0.50 0.48 0.45
0.42 0.42 0.43 0.43 0.43 0.43 0.41 0.41 0.41 0.42 0.42 0.43 0.42 0.42 0.42 0.42 0.41 0.40 0.39 0.38 0.37 0.36 0.36 0.35 0.34 0.34 0.33 0.33 0.33 0.32 0.32 0.32 0.33 0.33 0.34 0.34 0.33 0.34 0.34 0.35 0.37 0.38 0.38 0.39 0.41 0.43 0.45 0.50 0.54 0.58 0.62 0.64 0.65 0.69 0.72 0.74 0.75 0.75 0.74 0.73 0.72 0.73 0.74 0.73 0.71 0.66 0.66 0.63 0.59 0.55 0.51 0.48 0.45 0.44 0.45 0.45 0.48 0.51 0.53 0.52 0.50 0.48 0.47 0.44 0.41
0.41 0.41 0.41 0.41 0.40 0.40 0.39 0.39 0.40 0.40 0.40 0.40 0.41 0.41 0.39 0.38 0.37 0.37 0.39 0.39 0.38 0.35 0.34 0.33 0.33 0.33 0.33 0.32 0.31 0.29 0.29 0.29 0.31 0.35 0.35 0.35 0.34 0.32 0.31 0.32 0.35 0.38 0.40 0.41 0.39 0.39 0.40 0.41 0.42 0.45 0.49 0.54 0.57 0.59 0.64 0.71 0.74 0.74 0.73 0.71 0.71 0.71 0.70 0.67 0.64 0.63 0.61 0.60 0.54 0.48 0.45 0.44 0.44 0.45 0.46 0.47 0.49 0.50 0.51 0.49 0.48 0.45 0.45 0.44 0.41
0.40 0.40 0.40 0.39 0.38 0.38 0.38 0.38 0.39 0.39 0.39 0.38 0.37 0.37 0.40 0.39 0.38 0.35 0.34 0.36 0.37 0.37 0.36 0.33 0.34 0.34 0.33 0.34 0.35 0.31 0.29 0.31 0.34 0.34 0.34 0.34 0.35 0.35 0.35 0.35 0.36 0.39 0.41 0.43 0.42 0.39 0.36 0.35 0.36 0.38 0.41 0.43 0.47 0.51 0.57 0.63 0.66 0.67 0.67 0.67 0.68 0.68 0.67 0.66 0.65 0.63 0.63 0.58 0.51 0.46 0.44 0.44 0.45 0.48 0.48 0.48 0.48 0.48 0.48 0.46 0.43 0.43 0.42 0.40 0.37
0.38 0.38 0.37 0.37 0.37 0.37 0.37 0.37 0.38 0.38 0.37 0.36 0.35 0.33 0.32 0.35 0.38 0.38 0.38 0.38 0.38 0.38 0.38 0.38 0.37 0.37 0.36 0.33 0.35 0.36 0.35 0.35 0.35 0.35 0.35 0.35 0.35 0.35 0.35 0.36 0.37 0.40 0.43 0.42 0.41 0.39 0.37 0.36 0.36 0.36 0.37 0.39 0.41 0.44 0.50 0.56 0.63 0.65 0.66 0.67 0.68 0.67 0.66 0.65 0.63 0.62 0.60 0.54 0.48 0.45 0.46 0.47 0.48 0.48 0.47 0.46 0.46 0.46 0.45 0.45 0.44 0.43 0.41 0.39 0.35
0.35 0.35 0.35 0.36 0.36 0.36 0.36 0.37 0.37 0.36 0.35 0.35 0.34 0.32 0.32 0.30 0.32 0.37 0.38 0.38 0.38 0.38 0.38 0.38 0.38 0.37 0.37 0.36 0.34 0.34 0.35 0.36 0.36 0.36 0.36 0.36 0.36 0.36 0.37 0.38 0.39 0.42 0.44 0.45 0.40 0.39 0.39 0.38 0.37 0.37 0.38 0.39 0.40 0.42 0.45 0.49 0.57 0.67 0.68 0.66 0.65 0.66 0.63 0.61 0.60 0.57 0.54 0.49 0.46 0.45 0.46 0.47 0.47 0.47 0.46 0.46 0.46 0.44 0.44 0.43 0.44 0.43 0.40 0.37 0.35
0.36 0.35 0.35 0.35 0.35 0.36 0.36 0.36 0.36 0.36 0.35 0.34 0.33 0.33 0.32 0.30 0.28 0.28 0.32 0.36 0.36 0.35 0.35 0.36 0.36 0.36 0.36 0.36 0.36 0.35 0.35 0.36 0.36 0.36 0.37 0.37 0.38 0.38 0.39 0.41 0.43 0.45 0.45 0.42 0.39 0.39 0.40 0.40 0.38 0.37 0.37 0.38 0.41 0.44 0.45 0.50 0.58 0.64 0.68 0.66 0.65 0.65 0.64 0.61 0.58 0.55 0.52 0.49 0.47 0.45 0.45 0.45 0.46 0.47 0.47 0.47 0.45 0.43 0.43 0.43 0.42 0.40 0.37 0.34 0.33
0.37 0.35 0.35 0.35 0.35 0.36 0.36 0.36 0.35 0.35 0.35 0.34 0.33 0.32 0.32 0.31 0.30 0.28 0.27 0.26 0.28 0.32 0.35 0.35 0.35 0.35 0.35 0.36 0.36 0.36 0.36 0.36 0.37 0.37 0.37 0.38 0.39 0.40 0.40 0.42 0.45 0.47 0.45 0.42 0.40 0.39 0.40 0.40 0.41 0.40 0.39 0.39 0.42 0.46 0.51 0.58 0.62 0.63 0.64 0.63 0.63 0.62 0.60 0.59 0.56 0.53 0.50 0.48 0.46 0.44 0.45 0.46 0.48 0.48 0.48 0.47 0.46 0.45 0.44 0.41 0.38 0.35 0.33 0.32 0.32
0.37 0.37 0.37 0.36 0.36 0.36 0.36 0.35 0.35 0.34 0.34 0.34 0.33 0.33 0.31 0.31 0.31 0.30 0.29 0.28 0.28 0.27 0.28 0.31 0.35 0.36 0.35 0.36 0.36 0.37 0.37 0.38 0.38 0.38 0.38 0.38 0.39 0.40 0.41 0.40 0.40 0.42 0.44 0.44 0.42 0.41 0.40 0.41 0.42 0.43 0.42 0.40 0.41 0.43 0.48 0.56 0.61 0.62 0.63 0.62 0.61 0.59 0.57 0.56 0.53 0.51 0.49 0.48 0.48 0.48 0.48 0.48 0.50 0.49 0.47 0.45 0.43 0.40 0.37 0.35 0.35 0.33 0.32 0.32 0.33
0.38 0.38 0.38 0.37 0.37 0.38 0.37 0.36 0.36 0.35 0.35 0.35 0.35 0.35 0.35 0.34 0.33 0.32 0.33 0.33 0.32 0.31 0.31 0.33 0.35 0.36 0.37 0.38 0.39 0.39 0.39 0.40 0.40 0.40 0.40 0.41 0.41 0.42 0.38 0.38 0.39 0.41 0.42 0.43 0.43 0.43 0.43 0.43 0.44 0.45 0.44 0.43 0.43 0.43 0.46 0.49 0.55 0.58 0.59 0.58 0.57 0.56 0.55 0.54 0.53 0.51 0.50 0.50 0.52 0.53 0.51 0.51 0.50 0.48 0.46 0.43 0.40 0.38 0.35 0.33 0.32 0.32 0.32 0.32 0.32
0.39 0.38 0.38 0.38 0.38 0.38 0.38 0.38 0.37 0.38 0.37 0.36 0.36 0.36 0.36 0.35 0.35 0.35 0.35 0.35 0.34 0.35 0.35 0.36 0.36 0.36 0.38 0.40 0.42 0.42 0.42 0.42 0.42 0.43 0.43 0.44 0.45 0.45 0.42 0.42 0.41 0.42 0.42 0.44 0.45 0.45 0.44 0.45 0.47 0.47 0.45 0.43 0.44 0.44 0.44 0.47 0.50 0.52 0.54 0.54 0.54 0.54 0.54 0.55 0.55 0.54 0.52 0.51 0.50 0.52 0.51 0.49 0.48 0.46 0.42 0.39 0.37 0.35 0.33 0.32 0.31 0.32 0.32 0.31 0.31
0.40 0.39 0.39 0.39 0.38 0.38 0.38 0.37 0.37 0.37 0.37 0.36 0.36 0.36 0.35 0.35 0.36 0.36 0.36 0.36 0.36 0.36 0.36 0.37 0.38 0.37 0.37 0.39 0.44 0.44 0.43 0.43 0.44 0.44 0.46 0.46 0.47 0.46 0.46 0.46 0.46 0.45 0.44 0.46 0.46 0.46 0.46 0.47 0.48 0.48 0.47 0.46 0.44 0.44 0.44 0.47 0.49 0.48 0.48 0.50 0.52 0.52 0.53 0.54 0.53 0.52 0.51 0.50 0.51 0.52 0.51 0.49 0.47 0.44 0.41 0.38 0.35 0.32 0.31 0.31 0.31 0.30 0.31 0.31 0.30
0.40 0.40 0.39 0.38 0.38 0.38 0.38 0.36 0.36 0.36 0.36 0.37 0.37 0.36 0.35 0.36 0.37 0.37 0.37 0.38 0.37 0.37 0.38 0.38 0.39 0.39 0.40 0.42 0.42 0.45 0.44 0.41 0.41 0.41 0.43 0.45 0.47 0.48 0.48 0.48 0.48 0.48 0.48 0.47 0.48 0.48 0.48 0.48 0.50 0.49 0.48 0.47 0.46 0.45 0.46 0.46 0.47 0.47 0.47 0.47 0.47 0.48 0.50 0.51 0.50 0.50 0.50 0.51 0.52 0.50 0.48 0.47 0.44 0.42 0.39 0.35 0.33 0.31 0.30 0.30 0.31 0.30 0.29 0.28 0.28
0.39 0.39 0.39 0.37 0.37 0.39 0.38 0.36 0.36 0.36 0.36 0.36 0.36 0.37 0.37 0.38 0.37 0.37 0.37 0.37 0.36 0.37 0.38 0.38 0.39 0.40 0.42 0.43 0.42 0.43 0.41 0.41 0.42 0.44 0.45 0.46 0.48 0.49 0.48 0.47 0.46 0.46 0.46 0.46 0.47 0.48 0.49 0.50 0.50 0.49 0.49 0.50 0.48 0.47 0.48 0.49 0.49 0.49 0.50 0.49 0.48 0.49 0.50 0.51 0.50 0.50 0.51 0.52 0.50 0.48 0.46 0.44 0.41 0.39 0.36 0.33 0.31 0.30 0.30 0.30 0.30 0.30 0.28 0.28 0.29
0.39 0.39 0.37 0.35 0.37 0.40 0.38 0.37 0.36 0.36 0.37 0.38 0.38 0.38 0.39 0.39 0.39 0.38 0.38 0.38 0.38 0.38 0.39 0.39 0.39 0.42 0.43 0.43 0.44 0.45 0.43 0.42 0.43 0.44 0.47 0.48 0.49 0.48 0.48 0.48 0.49 0.48 0.49 0.48 0.49 0.50 0.51 0.51 0.50 0.50 0.51 0.51 0.51 0.50 0.50 0.51 0.51 0.51 0.51 0.52 0.53 0.54 0.54 0.54 0.54 0.53 0.52 0.50 0.49 0.47 0.44 0.41 0.38 0.35 0.33 0.32 0.31 0.30 0.30 0.30 0.30 0.28 0.29 0.29 0.29
0.38 0.38 0.35 0.34 0.38 0.39 0.38 0.36 0.36 0.37 0.38 0.39 0.40 0.40 0.40 0.40 0.39 0.39 0.38 0.38 0.37 0.38 0.38 0.39 0.39 0.41 0.42 0.44 0.44 0.46 0.45 0.45 0.45 0.44 0.44 0.46 0.47 0.47 0.48 0.49 0.52 0.52 0.52 0.52 0.53 0.53 0.53 0.54 0.53 0.51 0.52 0.53 0.53 0.53 0.54 0.55 0.56 0.56 0.56 0.56 0.56 0.56 0.55 0.55 0.53 0.51 0.50 0.48 0.47 0.44 0.41 0.38 0.36 0.35 0.33 0.31 0.30 0.29 0.29 0.29 0.28 0.28 0.29 0.29 0.29
0.38 0.37 0.34 0.34 0.37 0.39 0.38 0.37 0.37 0.37 0.37 0.38 0.40 0.42 0.42 0.40 0.39 0.38 0.38 0.38 0.38 0.37 0.38 0.37 0.38 0.40 0.41 0.42 0.43 0.44 0.45 0.45 0.45 0.44 0.44 0.45 0.46 0.47 0.47 0.47 0.50 0.52 0.52 0.50 0.51 0.55 0.55 0.56 0.55 0.54 0.54 0.55 0.57 0.59 0.59 0.59 0.58 0.57 0.57 0.57 0.57 0.56 0.54 0.51 0.49 0.48 0.47 0.46 0.44 0.42 0.40 0.37 0.35 0.32 0.31 0.29 0.28 0.28 0.28 0.28 0.28 0.28 0.28 0.28 0.28
0.38 0.36 0.33 0.34 0.38 0.39 0.39 0.39 0.39 0.38 0.38 0.38 0.40 0.41 0.41 0.40 0.39 0.38 0.37 0.37 0.37 0.38 0.37 0.37 0.38 0.38 0.39 0.41 0.42 0.42 0.41 0.42 0.43 0.44 0.45 0.45 0.45 0.45 0.46 0.48 0.49 0.50 0.51 0.51 0.51 0.53 0.55 0.54 0.54 0.54 0.53 0.53 0.56 0.58 0.58 0.59 0.59 0.58 0.58 0.57 0.55 0.52 0.50 0.48 0.47 0.46 0.44 0.42 0.41 0.39 0.36 0.34 0.31 0.30 0.28 0.27 0.27 0.27 0.28 0.28 0.28 0.28 0.27 0.28 0.28
0.37 0.34 0.31 0.35 0.38 0.38 0.38 0.39 0.38 0.38 0.38 0.38 0.39 0.40 0.40 0.39 0.38 0.38 0.37 0.37 0.37 0.37 0.38 0.38 0.39 0.38 0.39 0.40 0.41 0.41 0.41 0.41 0.41 0.41 0.42 0.43 0.44 0.45 0.45 0.47 0.48 0.49 0.49 0.50 0.52 0.52 0.53 0.54 0.53 0.53 0.54 0.55 0.56 0.56 0.57 0.58 0.59 0.58 0.57 0.54 0.51 0.49 0.48 0.47 0.47 0.46 0.44 0.42 0.40 0.38 0.35 0.31 0.28 0.27 0.27 0.27 0.28 0.27 0.28 0.28 0.28 0.27 0.28 0.27 0.26
0.36 0.34 0.31 0.35 0.37 0.37 0.37 0.37 0.37 0.37 0.38 0.38 0.39 0.39 0.39 0.39 0.39 0.39 0.37 0.37 0.37 0.37 0.38 0.38 0.39 0.39 0.40 0.41 0.42 0.42 0.42 0.42 0.42 0.41 0.41 0.42 0.43 0.43 0.43 0.44 0.46 0.48 0.49 0.51 0.52 0.53 0.54 0.55 0.55 0.56 0.56 0.56 0.57 0.58 0.57 0.56 0.55 0.54 0.53 0.51 0.50 0.49 0.48 0.48 0.47 0.46 0.44 0.42 0.39 0.36 0.32 0.29 0.27 0.27 0.27 0.28 0.28 0.28 0.28 0.27 0.28 0.28 0.27 0.26 0.26
0.36 0.33 0.31 0.34 0.36 0.37 0.37 0.37 0.36 0.36 0.37 0.38 0.39 0.39 0.40 0.39 0.39 0.39 0.37 0.37 0.37 0.38 0.38 0.39 0.39 0.39 0.40 0.41 0.42 0.42 0.43 0.42 0.42 0.42 0.43 0.43 0.43 0.44 0.45 0.45 0.45 0.47 0.49 0.51 0.53 0.53 0.55 0.56 0.56 0.56 0.56 0.56 0.56 0.54 0.53 0.53 0.52 0.52 0.51 0.51 0.50 0.49 0.48 0.47 0.46 0.45 0.43 0.40 0.37 0.34 0.30 0.28 0.27 0.27 0.28 0.29 0.29 0.29 0.29 0.28 0.27 0.26 0.25 0.26 0.26
0.36 0.33 0.31 0.33 0.35 0.35 0.35 0.34 0.34 0.36 0.37 0.37 0.38 0.39 0.40 0.40 0.39 0.37 0.37 0.37 0.37 0.38 0.38 0.39 0.39 0.40 0.41 0.42 0.42 0.43 0.43 0.44 0.44 0.44 0.44 0.44 0.44 0.45 0.46 0.46 0.47 0.48 0.49 0.51 0.53 0.54 0.54 0.55 0.55 0.55 0.54 0.53 0.52 0.52 0.52 0.52 0.51 0.51 0.50 0.50 0.50 0.49 0.48 0.47 0.44 0.42 0.39 0.36 0.34 0.32 0.30 0.28 0.28 0.29 0.30 0.30 0.30 0.30 0.29 0.28 0.27 0.26 0.26 0.26 0.27
0.35 0.33 0.31 0.30 0.31 0.32 0.32 0.32 0.34 0.35 0.36 0.37 0.38 0.39 0.39 0.38 0.37 0.37 0.37 0.37 0.38 0.38 0.39 0.39 0.40 0.41 0.42 0.42 0.43 0.43 0.44 0.44 0.44 0.45 0.45 0.46 0.46 0.46 0.46 0.46 0.47 0.48 0.49 0.51 0.52 0.53 0.53 0.53 0.53 0.52 0.52 0.51 0.51 0.50 0.50 0.49 0.49 0.48 0.48 0.48 0.47 0.45 0.43 0.41 0.39 0.37 0.35 0.33 0.32 0.31 0.30 0.31 0.32 0.33 0.34 0.33 0.32 0.31 0.30 0.29 0.28 0.27 0.27 0.27 0.28
0.35 0.33 0.31 0.29 0.28 0.28 0.30 0.32 0.34 0.35 0.36 0.37 0.37 0.38 0.39 0.38 0.37 0.37 0.37 0.37 0.38 0.39 0.39 0.40 0.41 0.41 0.42 0.42 0.42 0.43 0.44 0.45 0.45 0.45 0.46 0.46 0.47 0.48 0.48 0.49 0.49 0.49 0.49 0.50 0.51 0.52 0.51 0.51 0.50 0.49 0.48 0.47 0.47 0.46 0.46 0.45 0.44 0.44 0.44 0.45 0.43 0.41 0.39 0.38 0.36 0.35 0.34 0.34 0.34 0.35 0.36 0.36 0.36 0.35 0.34 0.33 0.32 0.31 0.30 0.29 0.29 0.29 0.28 0.27 0.28
0.34 0.32 0.30 0.29 0.28 0.27 0.28 0.29 0.31 0.34 0.36 0.36 0.37 0.38 0.38 0.38 0.37 0.37 0.37 0.37 0.38 0.39 0.40 0.41 0.41 0.42 0.42 0.42 0.43 0.43 0.44 0.45 0.45 0.46 0.46 0.46 0.47 0.47 0.47 0.48 0.48 0.48 0.48 0.49 0.49 0.49 0.48 0.47 0.46 0.45 0.44 0.43 0.42 0.42 0.41 0.40 0.39 0.39 0.38 0.38 0.37 0.37 0.36 0.36 0.36 0.37 0.37 0.38 0.39 0.39 0.38 0.37 0.35 0.34 0.33 0.32 0.32 0.31 0.31 0.31 0.31 0.30 0.29 0.29 0.29
Wind_Speed
17 16 16 15 15 14 13 12 12 12 11 11 10 10 10 10 10 9 8 8 8 8 7 7 7 7 8 8 8 8 7 7 6 6 7 7 7 7 7 7 7 6 6 6 6 6 6 6 6 6 7 8 9 10 10 10 10 10 10 10 10 10 10 9 8 8 9 10 10 10 10 10 10 10 10 10 11 11 11 12 12 12 12 12 12
17 17 16 16 15 14 13 13 12 12 12 11 11 11 11 10 10 9 9 8 8 8 7 7 8 8 8 8 8 8 8 7 7 7 7 7 7 7 7 7 7 7 7 7 6 6 6 6 6 5 6 7 8 9 9 9 9 10 10 10 10 11 11 10 10 9 10 11 11 11 11 11 11 11 11 11 11 12 12 13 13 14 14 14 14
17 17 16 16 15 15 14 14 13 13 12 12 12 11 11 11 10 9 9 8 8 8 8 8 8 8 9 9 9 9 8 8 7 7 7 7 7 7 7 7 7 7 7 7 7 7 7 6 6 6 6 6 7 7 8 8 8 9 10 10 11 11 12 12 11 11 11 12 12 12 12 12 12 12 12 12 13 13 13 14 14 15 15 15 15
16 17 16 15 15 16 15 15 14 13 12 12 12 12 11 10 10 9 9 8 8 8 8 8 8 9 9 9 9 9 8 8 8 8 8 8 8 8 8 8 8 7 7 7 7 8 7 7 7 7 7 7 7 7 7 8 8 9 10 10 11 11 12 12 12 11 11 12 12 13 13 13 13 13 13 14 14 15 15 15 15 15 15 15 15
16 15 15 15 15 16 15 14 14 13 13 12 12 12 11 11 10 10 9 9 9 9 8 8 8 9 9 9 9 9 9 9 9 9 8 8 8 8 8 8 8 8 7 7 7 7 8 8 8 8 8 8 8 8 8 9 9 10 10 11 11 11 12 12 12 12 12 12 13 13 13 14 14 14 14 15 15 16 15 15 15 15 15 15 16
18 16 15 15 15 16 15 14 14 13 13 12 12 12 11 11 11 11 10 10 9 9 9 8 8 9 9 10 10 9 9 9 9 9 9 9 9 9 8 8 8 8 8 7 7 7 8 9 9 9 9 9 9 10 10 10 10 11 11 11 11 11 12 13 13 13 13 13 13 14 14 15 15 15 16 16 16 16 16 16 16 16 16 16 16
18 17 16 16 15 16 16 16 14 13 13 12 12 12 12 12 11 11 11 10 10 10 10 10 9 9 9 9 10 9 9 9 10 9 9 9 9 9 9 9 9 9 9 9 9 9 9 9 10 10 10 11 11 11 11 11 12 12 12 11 11 11 12 13 14 14 14 14 14 15 15 16 16 17 17 17 17 18 18 18 18 18 18 18 18
16 16 15 15 15 15 15 15 14 14 13 13 12 12 12 12 11 11 12 11 10 11 11 11 10 10 10 10 10 10 10 10 10 10 10 10 11 11 11 11 11 11 11 11 11 11 11 11 11 11 12 12 12 13 13 13 13 14 14 14 13 14 14 15 15 15 16 16 16 16 16 17 17 18 18 18 19 19 19 19 19 19 19 19 19
14 13 13 13 13 14 14 14 14 13 13 12 12 12 13 12 12 12 13 12 12 11 12 12 12 11 11 11 11 11 11 11 12 12 12 12 12 13 13 13 13 13 13 13 13 13 13 13 13 13 14 14 14 15 15 15 15 15 15 16 16 16 17 17 17 17 17 17 18 17 17 18 19 19 19 20 20 21 21 21 21 21 20 20 20
12 12 12 13 13 13 13 13 13 12 13 13 13 13 13 13 13 13 13 13 13 12 12 12 12 12 13 13 13 13 12 12 13 13 14 14 14 15 15 15 15 15 15 15 15 15 15 15 15 15 16 16 16 16 16 16 17 17 17 17 18 18 18 19 19 19 19 19 19 19 19 20 20 21 21 22 22 22 22 22 22 22 21 21 22
10 11 11 12 12 13 13 13 12 12 13 14 14 13 13 13 13 14 14 14 13 13 12 12 13 13 13 14 14 14 14 14 14 15 15 16 16 16 17 17 17 17 18 18 18 18 18 18 18 18 18 17 18 18 19 19 19 19 19 19 19 19 19 20 20 20 20 21 21 21 21 22 22 22 23 23 23 24 24 23 23 23 22 23 23
10 10 10 10 11 12 13 13 13 13 13 14 14 14 14 14 14 14 14 14 14 13 13 13 13 14 14 15 15 16 16 16 16 17 17 17 18 18 18 19 19 20 20 20 20 20 21 20 20 20 20 20 20 20 21 21 21 21 21 21 21 21 21 21 21 21 22 22 22 23 23 24 24 24 25 25 25 25 25 25 24 24 24 24 25
8 9 9 9 10 11 12 13 13 13 13 14 14 14 14 14 15 15 15 15 15 14 14 14 14 15 15 16 16 17 18 18 19 19 19 19 20 20 20 21 21 21 21 22 22 22 22 23 23 22 22 22 22 22 22 23 23 23 23 23 23 23 23 23 23 23 24 24 25 26 26 26 26 26 27 27 26 26 26 26 26 25 25 26 26
8 8 8 8 9 10 11 12 12 12 13 14 14 14 14 14 15 15 15 15 15 16 16 16 16 16 16 17 17 18 19 20 20 21 21 21 21 22 22 23 23 23 23 23 23 24 24 24 24 24 24 24 24 24 24 25 25 25 26 26 26 25 25 25 26 26 26 27 27 27 28 28 28 28 28 28 28 28 28 27 26 26 26 27 27
8 8 8 8 8 8 9 10 11 11 12 14 14 14 15 15 15 16 16 16 17 18 18 18 18 18 18 19 19 19 19 20 20 21 22 22 22 23 24 25 25 26 26 26 26 26 26 26 26 26 26 26 26 25 26 26 27 27 27 27 27 27 27 28 28 29 29 29 29 29 29 29 30 29 29 28 28 28 28 27 27 26 27 28 28
8 8 8 8 8 9 10 11 11 12 13 14 15 15 15 16 16 17 18 18 19 19 19 19 19 19 20 20 21 21 21 21 22 22 23 23 23 24 25 25 26 27 28 28 28 28 28 28 29 29 29 28 28 27 27 28 28 29 29 29 29 30 30 30 31 31 31 31 31 31 30 30 30 29 29 28 27 27 27 27 27 27 28 28 28
8 8 8 9 10 11 11 12 12 13 14 14 15 15 16 17 18 18 19 19 20 20 20 21 21 21 21 22 22 23 24 24 24 25 25 26 26 26 26 26 27 28 29 29 30 30 31 31 31 32 32 32 31 31 30 30 30 31 31 32 32 32 33 33 33 33 33 32 32 31 30 30 29 28 28 28 27 27 27 28 28 28 28 28 28
9 9 10 11 11 12 13 13 14 14 15 15 16 17 18 18 19 20 20 21 21 22 22 22 22 22 23 23 24 24 25 26 26 27 27 28 28 28 28 29 29 30 30 31 31 32 32 33 34 34 34 34 34 33 33 33 33 34 34 34 34 34 34 33 33 33 33 33 32 31 30 30 30 29 29 28 28 28 28 28 28 27 27 27 27
10 11 12 13 14 14 15 16 16 16 16 17 18 18 19 20 21 21 22 22 23 23 23 23 24 24 24 25 26 26 27 27 28 28 29 30 30 31 31 31 32 32 32 33 33 34 34 35 36 36 37 36 36 36 36 37 37 36 36 36 36 36 35 34 34 33 33 33 33 33 32 31 31 30 29 29 29 29 28 28 28 28 28 27 27
14 14 15 15 16 17 17 18 18 19 19 20 20 21 21 22 23 23 24 24 24 25 25 25 26 27 27 28 28 29 30 30 31 31 31 32 32 33 33 34 34 34 35 35 36 36 36 37 37 38 39 39 39 39 39 39 39 39 38 38 38 37 36 36 35 34 34 34 34 34 33 32 31 30 29 29 29 29 28 27 28 28 28 28 27
17 18 18 18 18 19 19 20 21 22 22 23 24 24 24 25 25 26 26 26 27 27 28 28 29 30 30 31 31 32 32 33 33 34 34 35 35 35 36 36 37 37 38 38 38 39 39 39 39 40 40 41 41 41 41 41 41 41 41 41 40 38 37 36 36 35 35 35 34 33 33 32 32 31 30 29 29 28 28 28 28 28 27 27 27
19 19 20 20 20 21 21 22 23 23 24 25 25 26 26 27 27 28 28 29 29 30 31 31 32 33 33 34 34 35 35 36 36 37 37 38 38 38 38 39 39 40 40 41 41 41 41 41 41 41 41 42 42 43 43 43 42 42 41 41 40 38 37 37 37 36 35 35 34 33 33 33 32 31 30 29 29 28 28 27 27 27 27 27 27
21 21 22 23 23 23 24 24 25 25 26 26 26 26 27 28 29 29 30 31 32 32 33 34 35 35 36 37 37 37 38 39 39 40 40 41 41 41 41 41 42 42 43 43 44 44 43 43 43 43 43 43 44 44 44 43 43 42 42 41 40 40 39 38 37 37 36 35 35 34 33 33 32 31 29 29 29 28 27 27 26 26 26 27 27
23 23 24 24 25 25 25 26 26 27 27 27 27 27 28 29 30 31 32 32 33 34 35 36 37 38 38 39 39 39 40 40 41 42 42 43 43 43 44 44 44 44 45 45 45 46 46 46 46 46 45 45 45 45 45 44 43 43 42 41 41 40 40 39 38 37 36 36 35 35 34 33 32 30 29 29 29 28 27 26 26 26 26 27 28
24 25 25 25 26 26 26 27 27 28 28 29 29 30 31 31 32 33 34 34 35 36 37 37 38 39 40 40 41 41 42 42 43 43 44 45 45 46 46 46 46 47 47 47 47 48 48 48 48 47 47 46 46 45 45 44 44 43 42 42 41 41 40 39 38 37 36 35 35 34 33 32 30 29 29 29 28 27 26 26 26 27 27 28 29
25 25 25 26 26 26 27 28 28 29 29 30 30 31 32 33 34 35 35 36 37 38 38 39 40 41 41 42 43 43 44 44 44 45 45 46 46 47 48 48 48 48 48 48 49 49 49 49 49 48 47 46 46 45 44 44 43 43 42 41 40 40 39 38 37 35 35 34 33 32 31 30 29 29 28 28 29 28 27 27 27 28 29 30 30
24 24 25 26 26 27 27 28 29 30 30 31 32 33 33 34 35 36 37 38 39 39 40 41 42 42 43 44 44 45 45 45 45 46 46 46 46 47 48 48 48 49 49 49 49 49 49 48 48 47 47 46 45 45 44 43 43 42 41 40 39 38 37 36 35 33 33 32 31 30 29 29 28 28 28 28 28 28 27 27 28 29 30 31 31
24 25 25 26 27 28 29 29 30 31 32 33 33 34 35 36 37 37 38 39 40 41 42 43 43 44 44 45 45 46 46 46 46 46 46 46 46 47 47 48 48 48 48 49 49 48 48 48 47 47 47 46 45 45 44 43 42 40 39 38 37 36 36 35 33 32 32 31 30 29 29 28 28 28 28 28 28 28 28 29 29 30 30 30 30
26 27 27 28 29 30 31 32 32 33 34 34 35 36 37 37 38 39 40 40 41 42 43 43 43 44 45 45 45 46 46 46 46 46 46 47 47 47 47 47 48 47 48 48 48 48 47 47 47 47 46 46 45 44 44 43 41 40 39 38 37 36 35 34 33 32 31 31 30 29 29 28 28 27 27 28 28 28 29 29 29 29 29 29 28
28 29 29 30 31 32 32 33 33 34 35 35 36 36 37 38 38 39 40 40 41 42 42 43 43 44 44 44 45 45 46 46 46 46 46 46 46 47 47 47 47 47 46 46 46 46 45 45 45 45 45 45 45 44 43 42 41 41 40 38 37 36 35 33 32 31 30 30 29 28 28 27 27 26 27 27 27 27 28 28 28 27 27 26 25
29 30 30 31 32 32 33 33 34 34 34 35 35 35 36 36 37 37 38 38 39 40 41 41 42 42 43 43 43 43 44 44 44 44 44 44 45 45 46 46 45 45 45 44 43 43 43 43 43 43 43 43 43 43 42 41 40 39 39 37 34 33 32 30 29 29 29 28 27 27 26 26 26 25 25 25 25 26 26 26 25 25 24 23 23
29 30 30 31 31 32 32 33 33 33 34 34 34 34 34 34 35 35 36 37 37 38 38 38 39 39 40 40 41 41 41 42 42 42 43 43 43 43 43 43 43 43 42 41 41 41 40 40 40 39 39 39 40 40 39 38 37 36 35 34 32 31 30 29 28 28 28 27 27 26 25 25 24 24 24 24 24 24 24 24 24 23 22 22 22
29 30 30 31 31 31 32 32 33 33 33 33 33 33 33 33 34 34 34 35 35 35 35 36 36 37 38 39 39 40 40 40 41 41 41 41 41 40 40 40 40 39 38 37 37 37 36 36 36 35 35 36 36 36 36 35 34 32 31 30 29 28 27 27 27 27 27 26 26 25 24 24 24 23 23 23 23 23 23 22 21 21 20 20 21
29 30 30 31 31 32 32 32 32 32 32 32 32 31 31 31 32 32 32 32 32 32 33 33 34 35 35 36 37 37 38 38 38 38 38 37 37 37 37 36 35 35 34 34 34 34 33 33 32 32 32 32 32 32 31 30 29 29 29 28 27 26 26 25 24 24 24 24 24 24 24 24 24 23 22 22 23 22 21 20 19 19 19 19 20
28 28 29 29 30 30 30 30 30 29 29 29 28 28 28 29 29 30 30 30 30 30 30 30 31 31 32 32 32 33 33 33 34 34 34 34 35 35 34 34 34 34 34 33 33 33 32 31 30 30 30 30 30 30 30 29 28 27 28 28 28 27 26 25 23 22 22 22 23 23 23 23 23 23 23 22 21 20 19 18 18 18 18 18 19
25 25 26 26 26 26 26 26 26 26 26 25 25 25 25 26 26 26 26 26 27 27 27 27 27 28 28 28 29 30 31 31 31 31 32 32 33 33 33 33 34 34 34 33 33 32 31 30 29 28 28 28 28 29 30 31 30 29 28 28 28 27 26 25 24 23 22 22 23 23 22 22 22 22 22 21 19 18 17 17 17 17 17 17 18
22 22 22 23 23 23 23 23 23 23 23 23 23 23 23 23 23 23 23 24 24 24 25 25 25 26 26 26 27 28 29 29 29 29 29 29 29 29 30 31 32 33 33 33 32 31 30 29 28 27 27 26 26 27 28 30 31 32 31 30 28 28 27 27 26 25 23 23 23 23 22 22 21 21 19 18 17 17 17 17 17 17 17 17 17
20 20 20 21 21 21 20 21 21 21 21 21 20 20 20 21 21 21 22 22 22 23 23 23 23 23 24 24 24 25 25 25 25 25 25 25 25 26 26 27 28 29 30 30 31 31 30 29 28 27 27 26 25 25 26 27 28 30 32 32 31 31 30 29 27 26 25 24 23 23 22 21 20 19 18 17 16 16 16 16 16 16 16 16 16
18 18 18 19 19 18 18 18 18 18 18 18 18 19 19 20 20 20 20 20 20 21 21 21 21 21 21 22 22 22 22 21 21 22 22 22 23 23 23 23 23 24 26 27 27 28 28 28 28 28 27 26 25 24 24 24 24 26 28 30 31 31 30 29 28 27 25 24 23 23 22 21 20 19 18 17 16 16 16 16 15 15 15 15 14
16 16 17 17 17 16 16 16 16 17 17 17 17 17 18 18 18 18 18 18 18 18 18 19 19 19 20 21 21 21 20 20 20 20 20 20 20 19 19 19 20 20 21 22 22 23 24 24 25 26 25 24 23 22 22 21 22 23 24 26 27 28 28 28 27 26 25 23 23 22 22 21 20 18 17 17 16 16 15 15 14 14 14 13 13
15 15 16 16 15 15 15 15 15 16 16 16 16 16 16 16 16 16 16 17 17 16 17 17 18 18 19 20 20 19 18 19 19 18 18 18 17 17 16 16 16 16 16 16 16 17 18 19 21 22 22 22 21 21 20 20 20 21 21 22 22 23 23 24 24 24 23 22 22 21 20 19 19 18 17 17 16 15 15 14 14 13 13 12 12
14 14 15 15 14 14 14 15 15 14 14 15 15 15 14 14 14 15 15 15 16 16 16 17 17 18 18 18 18 18 18 18 17 16 16 15 15 14 14 13 13 12 12 11 11 11 13 14 16 18 19 19 19 19 19 18 18 18 19 19 19 19 19 20 21 21 21 20 20 19 18 18 17 17 16 16 15 14 14 13 13 12 11 11 12
13 14 14 14 14 14 14 14 14 14 14 14 14 13 13 13 13 14 14 15 15 15 15 16 17 17 17 17 17 17 17 16 16 15 14 13 12 12 11 11 11 10 10 9 8 8 9 10 11 13 15 16 17 18 18 17 16 16 16 16 16 16 17 18 19 19 19 19 18 18 17 17 16 16 15 14 14 13 13 12 12 11 11 11 11
12 13 13 13 13 13 13 13 13 13 13 13 12 12 12 12 13 13 14 14 14 14 14 15 15 15 15 16 16 16 15 15 14 14 13 12 11 10 9 9 9 8 7 6 5 4 6 7 9 10 12 13 14 16 16 16 15 15 15 15 15 15 16 17 17 17 17 17 16 16 16 16 15 15 14 14 13 13 12 11 11 11 11 11 11
11 12 12 12 12 12 12 12 13 13 12 12 11 11 11 12 12 13 13 13 13 13 13 13 14 14 14 15 15 14 14 14 13 12 11 10 10 9 9 8 8 7 5 3 1 2 5 7 8 9 10 11 13 14 14 15 15 15 14 14 14 15 15 16 16 16 15 15 15 15 15 15 15 15 14 13 13 12 12 12 12 11 11 11 11
11 11 11 11 11 11 11 11 12 12 11 10 10 10 10 11 12 12 12 12 11 11 12 12 13 13 14 14 14 14 13 13 12 11 10 9 8 8 7 7 7 6 4 1 1 2 5 7 8 8 9 10 11 12 12 13 14 14 14 13 12 13 14 14 15 15 14 14 14 14 15 15 15 14 14 13 13 12 12 12 12 11 11 12 11
10 10 10 10 10 10 10 10 11 11 10 9 9 9 10 11 11 12 11 11 10 10 11 11 12 12 13 13 13 13 13 13 12 10 9 8 7 7 6 5 5 5 3 1 1 3 5 6 7 8 9 10 10 10 10 10 10 11 12 12 12 13 13 14 14 14 14 14 14 14 15 15 14 14 13 13 13 12 12 11 11 11 11 11 11
9 9 8 8 8 8 9 9 9 9 8 8 8 9 9 10 10 11 10 10 9 9 10 10 11 11 12 12 12 12 12 12 10 9 8 7 6 5 5 4 3 2 1 1 2 4 5 7 8 9 10 10 9 9 9 8 8 9 10 11 12 13 14 13 13 13 13 13 14 14 14 14 13 13 12 12 12 12 11 11 11 10 10 11 12
8 7 7 7 7 7 8 8 8 8 8 8 8 9 9 9 9 10 9 8 8 9 9 9 10 10 10 10 10 10 10 10 9 7 7 7 7 6 5 4 3 3 3 3 4 5 6 7 7 8 8 8 8 8 8 8 8 9 9 10 12 13 13 13 12 11 12 12 13 13 13 13 12 12 12 12 12 11 11 11 10 10 11 11 12
7 7 6 6 6 6 7 8 8 8 8 8 8 8 9 9 9 9 8 8 8 8 9 9 9 9 8 8 8 9 9 9 8 8 8 8 8 8 7 6 5 5 4 4 5 5 5 5 5 5 6 6 7 7 8 8 9 9 10 10 12 13 13 12 12 11 11 11 11 12 12 12 12 12 12 12 12 12 11 11 11 11 11 12 12
8 7 6 6 6 6 7 7 8 8 8 8 8 8 9 9 9 8 7 7 8 8 8 8 8 7 7 7 7 7 7 8 8 8 8 8 8 8 7 6 6 6 5 4 4 3 3 3 3 3 4 4 5 6 7 8 8 9 10 10 11 12 13 12 12 11 11 11 11 11 11 12 12 13 13 13 13 12 12 12 12 12 12 12 13
Wind_Direction
208 208 211 212 212 214 217 220 224 228 231 233 234 234 235 237 239 243 246 246 240 231 228 230 230 225 218 215 215 216 217 217 218 218 216 215 216 217 218 218 220 223 223 225 228 229 230 232 235 234 231 229 228 229 232 234 235 239 243 244 245 248 251 252 255 257 255 256 259 262 261 259 262 263 262 264 264 264 266 270 273 276 277 278 280
210 210 211 213 214 216 220 223 226 228 229 232 234 233 235 238 241 245 246 242 234 226 226 229 229 223 216 214 215 217 220 220 220 219 216 215 216 218 219 218 221 225 226 228 231 232 232 231 231 229 226 228 228 228 231 234 238 242 244 246 248 250 253 256 258 259 258 258 260 262 261 259 261 262 261 263 265 265 268 270 272 273 274 274 276
209 210 212 216 218 220 223 226 228 228 229 232 234 233 235 239 241 243 241 235 227 223 226 229 228 220 213 213 216 218 220 222 222 221 217 217 218 219 220 220 221 225 227 230 232 232 230 227 226 223 220 223 224 225 230 237 243 247 248 249 251 253 256 258 261 263 261 262 263 263 262 261 263 264 263 264 266 267 269 270 270 272 273 273 274
213 213 215 220 221 221 224 227 227 228 229 232 233 233 235 238 239 238 235 231 224 221 224 226 223 215 210 211 215 217 220 222 223 223 221 221 221 220 220 221 222 225 228 230 231 231 228 226 227 227 226 228 230 235 241 247 253 255 255 256 256 256 257 258 262 265 264 264 265 265 264 264 265 266 265 266 267 269 271 270 269 270 271 272 273
226 221 221 224 225 224 225 226 225 226 229 231 232 232 233 236 236 233 230 227 222 218 219 221 218 213 211 214 216 219 222 223 223 223 224 225 225 222 222 223 224 226 227 227 228 229 228 228 231 234 236 239 243 247 252 256 260 262 261 261 260 259 259 260 263 267 266 265 266 266 266 266 266 266 265 266 268 270 271 271 270 269 270 271 273
234 231 230 230 231 229 227 226 225 227 230 232 233 232 232 234 232 229 227 225 222 219 218 220 218 214 215 219 221 223 223 223 223 224 225 227 227 225 223 225 227 228 228 229 230 231 232 235 239 242 246 249 252 255 258 260 262 263 262 262 262 260 261 263 266 267 268 268 268 267 267 266 267 268 268 268 268 269 270 270 271 271 270 272 273
232 232 232 233 234 232 229 228 227 229 232 235 234 233 233 233 230 227 225 225 224 222 221 222 223 221 222 224 226 226 225 225 226 226 228 229 229 228 228 229 233 234 234 235 237 239 241 243 246 249 252 254 256 259 261 262 263 263 263 264 265 265 266 268 268 268 268 269 268 268 269 268 268 270 271 271 270 269 268 268 269 270 272 273 273
228 228 230 232 234 232 228 228 229 230 233 233 233 233 233 231 228 226 226 226 225 224 224 226 227 227 228 229 230 229 229 230 231 231 232 234 234 235 236 237 239 240 240 241 243 245 247 249 251 252 255 257 260 262 264 266 266 265 265 267 269 270 270 270 269 269 270 270 269 270 270 270 270 271 272 272 270 268 267 267 268 270 272 273 273
222 225 227 229 231 229 226 226 228 229 230 230 232 233 233 231 228 226 227 227 228 227 227 228 228 230 232 232 233 234 234 237 239 238 238 239 239 240 241 243 243 243 243 245 247 250 252 254 255 257 259 261 263 265 266 268 269 268 268 269 271 272 272 271 270 270 271 271 271 272 272 272 272 272 272 272 271 270 269 269 269 270 271 272 273
222 228 228 226 227 225 221 221 226 229 231 233 235 233 232 232 229 227 227 227 228 229 229 228 230 233 236 235 237 239 241 243 245 244 244 244 244 245 246 247 247 246 248 250 252 253 255 257 259 260 262 263 265 267 269 270 272 272 271 272 273 272 271 271 270 270 271 271 272 273 273 274 274 273 273 273 273 272 271 270 269 269 270 272 273
228 229 227 225 223 219 217 221 229 232 232 234 235 232 230 230 229 228 227 227 229 231 231 232 235 238 239 240 241 243 246 248 249 249 249 249 249 249 249 249 249 250 252 254 256 258 259 260 262 263 264 265 267 269 271 272 273 273 273 273 273 273 272 271 270 270 271 272 273 274 274 275 275 275 275 274 273 272 271 270 269 268 269 271 272
228 227 224 221 220 221 223 228 232 233 232 233 235 234 231 228 227 229 229 230 232 233 235 238 241 242 243 243 244 246 249 252 253 254 254 254 253 254 254 253 253 254 256 257 258 260 261 262 263 265 266 268 270 271 272 274 275 275 275 274 273 273 273 272 271 271 272 273 274 275 276 277 276 276 276 275 273 272 271 271 270 268 268 270 271
222 221 219 218 223 228 230 232 234 234 234 234 235 235 233 231 231 232 232 233 234 237 243 248 249 248 246 245 247 249 251 254 256 257 257 257 257 257 258 257 257 258 259 260 260 260 261 262 263 265 267 269 271 272 273 275 276 277 277 276 276 275 273 273 273 273 274 275 277 277 278 278 278 277 276 275 273 272 272 271 270 269 270 271 272
216 213 215 222 230 235 235 235 236 235 235 236 237 236 234 234 235 235 235 236 238 244 251 254 253 251 251 250 251 252 253 255 256 257 258 258 258 259 259 260 260 261 261 261 261 262 262 263 264 265 267 268 270 271 273 274 275 276 277 276 276 275 274 274 274 274 275 277 278 279 280 280 279 279 277 275 273 272 271 271 270 270 271 272 273
217 216 218 224 231 237 240 241 240 238 237 238 239 238 237 237 238 239 241 243 246 249 252 254 254 254 255 255 255 255 256 256 257 258 259 259 259 259 260 260 261 261 261 261 261 262 263 264 265 265 266 267 269 270 272 274 274 274 274 273 274 275 275 275 275 274 275 277 278 279 281 281 280 279 277 275 274 272 271 271 270 270 271 272 274
219 221 226 232 236 239 242 243 243 243 244 244 243 241 241 242 243 245 248 250 251 252 253 254 256 256 257 257 257 258 258 259 260 261 261 262 262 262 262 262 262 262 261 261 261 262 263 264 265 265 266 267 268 268 270 272 273 273 273 272 273 275 275 275 275 274 274 276 278 280 281 280 279 277 275 274 273 272 271 271 271 271 271 272 274
225 231 240 246 246 244 246 247 246 247 249 250 248 246 246 248 249 250 252 253 253 254 256 257 258 259 260 261 261 261 261 262 263 263 263 264 265 265 265 265 264 264 263 262 262 262 263 264 265 266 267 267 267 267 268 270 272 273 273 273 273 274 274 274 274 273 272 274 277 279 279 278 277 275 273 272 271 271 271 271 271 271 271 271 273
239 246 251 254 254 253 252 252 251 251 252 251 251 251 252 253 253 255 256 256 257 258 259 260 260 262 263 264 264 264 264 264 266 266 266 266 266 266 267 267 266 266 265 264 263 264 265 265 266 267 268 268 268 268 269 271 273 274 273 273 273 274 274 274 273 272 271 272 275 276 277 277 275 273 272 270 269 271 272 271 270 270 271 272 273
251 254 255 257 258 258 258 256 254 255 254 253 254 255 256 256 256 257 258 258 259 259 260 261 262 264 265 266 266 267 266 266 267 268 268 268 268 267 268 268 268 267 266 266 265 266 266 267 267 268 269 269 268 269 270 272 273 273 273 272 272 273 274 273 273 272 271 271 272 273 274 275 273 272 270 269 269 270 271 270 271 271 272 273 274
260 260 261 262 262 261 260 259 259 259 258 258 257 258 258 259 260 260 260 259 259 260 261 261 263 265 266 267 267 268 268 268 269 270 270 270 270 269 269 269 269 268 267 267 267 267 268 268 269 269 269 269 268 269 270 271 272 273 272 272 272 273 273 272 271 271 271 271 271 271 272 272 271 269 268 269 269 269 269 269 270 271 272 273 274
264 263 264 266 266 264 263 263 263 263 262 261 261 261 261 262 262 263 263 262 262 262 263 264 265 266 267 267 268 268 269 269 269 270 271 271 271 271 270 270 269 269 268 268 268 268 269 270 270 270 270 269 269 269 270 270 271 272 272 272 273 272 271 270 270 271 271 270 269 268 269 270 269 268 268 269 269 268 267 268 269 269 271 273 274
265 266 266 267 268 268 267 267 266 265 265 264 264 264 263 263 264 265 265 265 265 266 266 267 268 269 270 270 270 270 271 271 271 271 272 272 272 272 271 271 270 270 269 268 268 268 269 269 270 270 270 270 270 270 270 270 271 271 271 271 271 269 269 269 269 270 270 268 266 266 268 269 267 266 266 267 267 266 267 268 268 268 270 272 274
266 268 268 269 270 270 269 268 268 268 268 268 267 266 266 265 265 266 266 267 267 268 269 269 270 271 272 273 273 273 273 273 273 273 273 273 273 272 272 271 271 271 270 270 270 270 269 270 270 270 271 271 270 270 270 269 270 270 269 269 268 267 268 268 268 267 267 265 264 265 267 266 265 263 264 265 265 265 266 266 266 267 270 272 275
268 269 270 271 271 271 270 269 269 270 270 270 270 269 268 268 268 268 269 269 269 270 271 272 272 273 274 274 274 274 274 274 274 274 274 273 273 273 273 272 272 271 271 271 271 271 270 270 270 270 270 270 271 270 269 269 268 268 267 267 267 267 267 266 265 264 262 261 262 264 264 263 262 261 262 263 264 264 264 263 263 266 269 273 276
269 271 272 272 273 272 272 272 272 272 272 271 270 270 270 270 271 271 271 272 272 273 273 273 274 275 275 275 275 275 275 275 275 275 275 274 274 273 273 273 272 272 271 271 271 271 271 271 270 269 269 270 270 270 269 268 267 266 266 266 266 266 266 265 263 260 259 259 261 261 261 259 259 260 261 261 262 262 262 262 263 266 270 273 276
272 273 273 274 274 274 274 274 274 273 273 272 272 271 272 272 272 273 273 274 275 275 275 276 276 276 276 277 277 277 277 276 276 276 276 275 275 274 274 273 273 272 272 271 272 272 271 271 270 269 269 269 269 269 268 267 266 265 265 265 265 265 264 263 260 257 257 257 257 257 256 256 257 258 258 259 260 260 260 262 265 268 271 274 277
273 273 274 274 274 275 275 275 275 275 274 274 274 274 274 274 274 275 275 276 276 276 277 277 277 277 277 277 277 277 277 277 277 276 276 275 275 275 274 273 273 273 272 272 272 271 271 270 269 268 268 268 268 268 267 266 265 264 263 263 263 262 261 259 256 255 255 254 253 253 253 254 255 256 257 259 260 260 261 265 268 271 274 277 279
273 275 275 276 276 276 277 277 276 276 276 277 277 277 276 276 276 276 276 276 277 277 277 277 277 278 278 278 278 278 278 278 278 277 276 276 276 275 275 273 272 272 272 272 272 272 271 270 269 268 267 267 267 267 266 264 263 262 261 261 260 259 257 255 253 252 252 251 250 250 251 252 253 254 256 259 260 261 264 268 271 273 276 278 279
275 277 277 278 278 278 278 278 278 278 278 278 278 278 278 278 278 277 277 277 277 277 277 277 278 278 278 278 278 279 279 279 279 278 278 278 277 277 276 275 273 272 272 272 272 271 271 270 269 268 266 265 265 265 264 262 260 258 258 258 256 255 253 252 249 248 248 248 249 249 250 251 252 254 257 259 262 264 267 270 272 275 277 278 278
278 278 278 279 279 279 279 279 279 279 279 279 279 279 279 279 278 278 278 278 278 278 278 278 278 278 279 279 279 279 280 280 280 279 279 279 278 278 277 276 274 273 272 272 272 271 270 270 268 267 266 264 263 263 261 260 257 255 254 253 252 251 249 247 245 244 245 246 247 248 249 250 252 255 258 260 263 266 268 270 272 275 276 276 277
279 280 280 281 282 282 282 282 282 282 281 281 281 281 281 281 281 280 280 280 280 280 279 279 279 279 280 280 280 280 280 281 280 280 279 279 279 279 278 276 274 273 272 272 271 270 270 269 268 267 265 263 262 260 258 257 256 253 250 248 247 245 243 241 240 240 241 243 244 246 248 251 253 256 258 261 263 266 267 270 272 273 273 275 278
280 280 281 282 283 283 283 283 284 284 284 284 284 283 283 284 284 283 283 283 283 282 282 281 281 281 281 281 281 281 281 281 281 280 279 279 279 279 278 277 275 273 272 271 270 269 269 268 267 266 264 263 261 258 255 254 253 250 245 241 239 239 239 238 237 238 240 242 243 246 248 250 252 255 258 260 263 265 267 269 270 270 272 276 280
280 281 281 283 283 284 284 284 284 284 285 285 284 284 284 285 285 285 286 285 284 284 283 283 283 283 283 283 282 282 282 282 281 281 280 279 279 279 279 277 275 272 270 269 269 268 267 266 265 264 263 261 259 255 252 250 248 244 239 236 235 235 234 234 235 237 239 241 243 245 247 249 252 255 257 260 263 266 268 268 268 270 274 279 281
280 281 281 282 283 284 285 285 284 284 285 284 284 284 284 285 286 287 288 288 288 287 286 286 286 286 286 285 285 284 284 283 282 281 280 279 279 278 278 277 275 271 269 268 268 267 266 264 263 262 261 259 256 252 247 243 240 236 234 233 230 228 228 229 231 233 236 239 242 245 248 251 252 253 256 261 264 265 264 265 267 272 276 278 279
281 282 282 283 284 285 285 285 285 285 285 285 285 285 285 286 287 288 288 289 290 290 291 291 290 290 290 289 289 288 287 286 285 284 282 281 280 279 277 276 274 271 269 268 267 266 265 263 262 262 260 258 254 249 242 237 233 231 230 228 226 226 227 228 228 231 236 241 244 247 250 251 250 251 256 261 261 260 260 264 270 274 276 276 278
282 283 283 285 286 287 286 286 286 286 287 287 286 286 286 287 288 289 289 289 291 293 294 295 295 294 293 293 292 292 291 290 289 287 286 284 282 280 278 276 273 271 269 268 266 265 263 262 261 260 259 257 254 248 241 236 232 229 228 227 226 226 226 226 229 236 242 245 247 249 249 248 249 253 256 256 254 256 261 267 271 272 273 274 277
284 285 285 287 289 289 287 286 286 287 287 287 287 287 288 289 290 291 291 292 294 296 297 298 299 299 298 298 298 296 295 293 291 290 289 288 285 283 280 278 275 272 270 267 265 263 261 259 259 258 257 256 253 248 242 236 232 230 229 229 228 228 227 229 234 240 243 246 248 248 246 246 249 251 251 250 252 257 262 265 267 268 269 272 277
285 286 288 290 292 291 289 288 288 288 288 288 289 289 290 292 293 294 295 295 297 298 299 300 302 303 304 305 306 304 301 298 296 295 294 293 290 287 284 281 278 274 271 267 264 260 258 256 256 255 254 253 250 245 239 234 231 230 230 231 232 233 234 235 238 240 243 246 246 244 244 245 245 245 246 249 253 256 258 259 260 263 267 273 279
287 289 291 293 294 293 290 290 291 291 291 291 291 291 292 293 295 296 297 298 299 300 301 302 304 306 308 310 312 311 308 305 302 301 300 298 296 294 290 286 282 279 275 270 264 260 256 253 251 251 250 248 245 240 235 231 230 231 231 232 233 235 235 236 238 240 242 243 242 240 241 242 241 243 248 251 251 250 252 254 258 264 269 274 278
288 291 294 296 297 295 293 293 294 294 295 295 294 294 294 295 296 298 299 300 302 303 305 306 308 309 311 312 314 314 313 310 309 307 305 303 302 300 297 293 290 286 281 274 266 259 254 250 247 245 243 240 236 233 230 230 230 231 231 231 232 233 234 236 237 238 239 238 237 236 237 237 238 241 245 245 245 246 249 253 260 266 270 273 277
289 292 296 298 298 297 296 296 295 296 297 298 297 296 296 297 299 301 303 304 305 306 308 310 312 313 314 315 315 314 313 314 315 315 313 310 308 305 303 301 298 295 291 284 271 259 251 246 243 238 234 230 228 227 226 227 228 229 228 228 228 229 231 232 232 232 231 231 230 231 231 233 235 237 238 239 241 245 249 255 261 265 267 272 278
290 293 296 299 298 297 297 298 297 297 298 300 299 298 298 300 303 306 307 309 310 310 310 312 314 315 316 317 318 317 315 316 318 320 319 316 313 311 310 309 307 303 301 296 281 261 247 241 237 232 226 222 221 220 219 220 222 222 221 220 221 223 224 225 224 223 223 223 224 226 228 230 232 233 234 236 240 245 251 256 258 260 265 272 279
289 293 297 298 298 297 296 298 299 299 299 301 302 301 301 304 308 310 312 313 314 313 313 315 318 318 318 319 319 319 318 318 318 318 318 319 319 318 317 317 314 309 307 303 288 260 242 234 227 220 214 210 208 207 208 210 212 212 212 213 215 217 219 218 216 215 215 217 220 224 226 226 227 229 232 236 241 246 250 252 254 259 266 271 277
287 293 298 299 298 297 297 297 299 300 299 301 303 303 304 307 311 313 315 317 317 317 319 321 323 324 324 323 323 323 323 323 322 319 317 317 317 317 318 319 319 313 309 306 293 251 223 211 201 194 192 193 194 197 201 203 205 206 208 211 213 214 213 211 210 211 213 217 220 221 222 222 224 228 232 237 241 244 245 247 253 260 265 270 278
286 293 299 300 300 300 299 299 302 302 299 299 301 305 308 310 313 316 318 320 320 321 324 327 329 329 330 329 328 329 330 329 328 325 322 319 316 314 313 315 318 317 312 307 285 186 176 174 172 173 177 182 187 192 197 200 202 204 207 209 213 213 211 211 211 212 215 218 220 220 220 222 224 228 232 235 238 240 242 247 254 259 265 271 279
284 292 297 299 300 301 302 303 305 305 301 298 300 305 309 311 314 317 320 321 322 325 328 331 333 334 335 335 334 335 335 334 333 331 329 325 320 317 312 310 312 315 313 299 203 167 166 168 171 172 175 178 182 185 189 194 199 203 205 207 211 212 211 210 212 213 215 219 221 221 221 223 225 228 231 233 236 240 246 250 255 261 267 273 278
282 290 295 298 300 303 305 308 309 308 305 302 302 306 309 311 314 318 321 321 324 329 333 335 337 338 340 341 342 342 341 340 339 337 335 333 330 328 325 320 317 317 314 273 176 167 166 168 169 168 168 170 173 176 181 188 195 200 202 205 208 210 210 211 213 216 218 219 219 219 221 223 226 228 231 233 237 242 247 251 256 263 268 271 278
278 286 293 297 299 303 309 313 313 313 312 310 309 310 311 312 316 320 321 321 325 332 336 339 341 342 344 347 349 349 350 350 350 350 352 356 358 355 351 348 345 348 20 125 140 146 152 157 159 160 163 167 172 177 182 189 195 199 203 206 209 213 215 216 217 218 219 219 218 218 220 223 225 227 229 230 234 241 245 249 256 266 270 271 278
270 281 291 296 298 304 311 317 320 319 318 316 314 312 312 315 318 320 321 322 327 333 336 339 342 343 345 351 356 359 2 6 11 19 27 30 32 32 33 38 47 61 86 111 125 134 143 150 156 161 169 178 186 192 198 203 207 210 213 214 214 216 218 218 217 216 216 216 216 216 218 219 222 224 226 227 232 238 244 249 257 267 272 274 280
261 272 285 293 299 305 312 318 323 324 322 320 317 315 315 317 318 318 319 323 329 333 335 338 341 342 346 355 3 9 14 20 27 36 41 41 40 41 45 50 57 66 83 105 122 131 138 144 151 164 180 194 204 212 219 223 224 225 225 223 220 218 217 216 215 213 213 213 214 214 216 219 222 226 228 230 233 240 246 252 259 266 273 277 281
253 264 277 288 297 306 311 316 321 323 323 322 320 318 317 317 318 317 319 323 328 330 332 337 340 342 348 358 8 14 19 23 28 35 39 41 40 40 43 50 58 65 76 95 116 129 137 144 153 172 191 206 216 222 226 229 231 231 230 227 223 221 219 219 218 217 216 217 218 219 222 225 228 230 232 233 238 244 250 255 259 264 270 276 281